Flag for Norway Weather past 2 weeks in Spydeberg, Norway

Now
61 °F

Scattered clouds.


Feels Like: 61 °F
Forecast: 44 / 60 °F
Wind: 12 mph from South

Location: Rygge

Current Time: Aug 23, 2014 at 6:15:11 PM

Latest Report: Aug 23, 2014 at 5:50 PM


Visibility: N/A

Pressure: 29.59 "Hg

Humidity: 63%

Dew point: 48 °F

Location of SpydebergLocation

Historic Weather in Spydeberg — Graph

°F

Spydeberg temperature yesterday

Maximum temperature yesterday: 57 °F (at 12:20 AM)
Minimum temperature yesterday: 50 °F (at 11:50 PM)
Average temperature yesterday: 55 °F

Past Weeks' High & Low Weather Summary

 TemperatureHumidityPressure
High75 °F (Aug 9, 2:50 PM)100% (Aug 9, 2:20 AM)29.89 "Hg (Aug 9, 2:20 AM)
Low48 °F (Aug 18, 7:20 AM)46% (Aug 15, 5:20 PM)29.18 "Hg (Aug 18, 12:50 PM)
Average59 °F80%29.55 "Hg
* Reported Aug 8 4:20 PM — Aug 23 4:50 PM, Spydeberg, Weather by CustomWeather, © 2014

Note: Actual official high and low records may vary slightly from our data, if they occured in-between our weather recording intervals... More about our weather records

Advertising

Spydeberg weather history for previous 24 hours

 ConditionsComfort  
Time TempWeatherWind HumidityBarometerVisibility
4:50 PM
Aug 23
61 °FScattered clouds.10 mph59%29.59 "HgN/A
4:20 PM63 °FScattered clouds.10 mph59%29.59 "HgN/A
3:50 PM63 °FScattered clouds.9 mph59%29.59 "HgN/A
3:20 PM63 °FScattered clouds.10 mph59%29.59 "HgN/A
2:50 PM63 °FScattered clouds.8 mph56%29.59 "HgN/A
2:20 PM63 °FScattered clouds.6 mph59%29.59 "HgN/A
1:50 PM63 °FScattered clouds.2 mph59%29.59 "HgN/A
1:20 PM63 °FScattered clouds.5 mph64%29.59 "HgN/A
12:50 PM63 °FScattered clouds.3 mph68%29.59 "HgN/A
12:20 PM61 °FScattered showers. Scattered clouds.5 mph68%29.59 "HgN/A
11:50 AM57 °FScattered showers. Scattered clouds.1 mph77%29.59 "HgN/A
11:20 AM57 °FScattered clouds.5 mph77%29.59 "HgN/A
10:50 AM57 °FScattered clouds.3 mph77%29.59 "HgN/A
10:20 AM59 °FScattered clouds.3 mph77%29.59 "HgN/A
9:50 AM57 °FScattered clouds.3 mph82%29.59 "HgN/A
9:20 AM57 °FScattered clouds.1 mph82%29.59 "HgN/A
8:50 AM54 °FPartly sunny.2 mph94%29.59 "HgN/A
8:20 AM52 °FDrizzle. Broken clouds.1 mph100%29.59 "HgN/A
7:50 AM52 °FBroken clouds.1 mph94%29.59 "HgN/A
7:20 AM52 °FBroken clouds.3 mph94%29.56 "HgN/A
6:50 AM50 °FPassing clouds.5 mph100%29.56 "HgN/A
6:20 AM52 °FPassing clouds.3 mph100%29.56 "HgN/A
5:50 AM52 °FRain. Low clouds.7 mph100%29.56 "Hg4 mi
5:20 AM50 °FHeavy rain. Overcast.6 mph100%29.59 "Hg2 mi
4:50 AM50 °FRain. Mostly cloudy.1 mph100%29.59 "Hg6 mi
4:20 AM50 °FPassing clouds.2 mph100%29.59 "HgN/A
3:50 AM50 °FPartly cloudy.2 mph100%29.59 "HgN/A
3:20 AM50 °FMostly cloudy.2 mph100%29.59 "HgN/A
2:50 AM50 °FOvercast.3 mph100%29.59 "Hg4 mi
2:20 AM50 °FFog.3 mph94%29.59 "Hg1 mi
1:50 AM50 °FFog.2 mph100%29.62 "Hg1 mi
1:20 AM50 °FPartly cloudy.3 mph100%29.62 "HgN/A
12:50 AM52 °FMostly cloudy.2 mph94%29.62 "HgN/A
12:20 AM52 °FDrizzle. Overcast.2 mph94%29.62 "HgN/A
11:50 PM
Aug 22
50 °FMostly cloudy.No wind100%29.62 "HgN/A
11:20 PM52 °FPassing clouds.5 mph94%29.62 "HgN/A
10:50 PM52 °FPassing clouds.3 mph94%29.62 "HgN/A
10:20 PM52 °FPartly cloudy.3 mph94%29.62 "HgN/A
9:50 PM54 °FThundershowers. Passing clouds.2 mph100%29.65 "Hg6 mi
9:20 PM54 °FThundershowers. Broken clouds.3 mph100%29.62 "HgN/A
8:50 PM54 °FScattered showers. Broken clouds.5 mph94%29.62 "HgN/A
8:20 PM54 °FSprinkles. Broken clouds.5 mph100%29.62 "HgN/A
7:50 PM54 °FBroken clouds.5 mph100%29.62 "HgN/A
7:20 PM55 °FRain. Broken clouds.2 mph94%29.65 "Hg3 mi
6:50 PM55 °FScattered showers. Broken clouds.7 mph94%29.65 "HgN/A
6:20 PM55 °FBroken clouds.5 mph94%29.65 "HgN/A
Weather by CustomWeather, © 2014

See weather overviewHow to use our weather pages